Wind_Speed
13 6 8 10 12 15 15 14 16 20 27 26 29 26 36 40 37 38 36 37 40 36
17 11 9 11 14 19 20 17 18 20 20 25 29 31 34 37 39 37 38 38 39 38
17 15 13 11 17 18 20 20 21 24 24 22 25 29 33 30 35 37 38 40 37 40
22 20 17 16 13 17 21 19 22 24 26 30 29 28 33 36 36 38 37 38 37 38
21 20 21 18 18 14 13 23 24 22 24 29 33 35 35 33 36 37 38 39 41 39
21 21 21 19 20 19 17 16 26 25 29 32 34 35 38 39 38 38 41 42 38 40
22 21 21 20 20 22 20 19 19 26 30 33 35 37 37 39 36 35 38 39 41 41
22 20 21 21 22 24 20 22 20 24 29 31 33 36 37 37 37 34 33 36 39 38
22 20 20 21 22 22 21 26 22 18 27 29 31 32 37 36 32 32 31 32 34 35
22 21 19 20 20 21 21 27 25 19 19 26 32 35 36 36 31 30 28 29 32 29
21 22 20 19 19 19 20 23 26 23 19 17 23 29 33 36 32 30 28 30 27 28
21 22 21 19 20 19 19 23 25 23 20 15 18 21 31 35 32 25 23 23 28 31
21 21 21 19 19 18 18 22 24 22 18 15 13 17 27 34 28 25 24 21 22 30
21 21 19 18 16 16 20 22 21 19 17 14 10 12 24 30 31 27 25 24 22 24
Wind_Direction
32 300 269 244 233 229 228 230 227 224 226 222 221 217 208 211 210 206 210 209 205 206
16 8 350 273 261 251 241 230 226 221 221 224 223 220 212 208 208 211 213 217 212 206
1 2 355 333 262 255 245 232 227 227 224 223 225 223 223 216 212 210 216 217 214 211
358 357 357 355 355 262 253 239 234 233 228 226 227 226 224 221 218 212 216 215 215 209
351 350 357 350 341 332 305 253 242 237 237 234 229 226 226 227 224 215 214 216 213 205
345 345 347 345 336 331 321 290 254 243 240 239 232 228 228 228 225 221 215 212 209 202
338 336 338 337 335 332 324 315 281 255 252 242 236 237 234 230 226 219 214 208 205 203
332 329 332 335 335 332 330 322 300 267 253 250 243 237 229 223 220 217 210 201 199 203
327 329 330 332 330 328 327 327 319 288 262 255 249 242 231 222 213 208 202 193 195 200
323 324 325 326 325 326 326 331 323 314 290 260 251 243 236 229 207 200 198 195 194 194
316 320 320 319 321 322 322 324 323 320 310 285 250 235 227 215 204 201 208 209 210 214
313 312 313 314 318 320 320 322 326 319 312 298 263 236 223 213 202 201 203 212 211 211
304 303 304 307 312 312 316 318 325 317 307 297 277 249 222 213 202 199 210 217 210 212
297 297 298 302 307 309 316 323 325 319 312 302 281 264 218 212 202 202 202 203 198 204
Height
737 739 740 741 742 743 745 747 750 752 754 758 761 763 766 768 771 775 780 784 787 790
739 738 738 738 738 738 740 742 745 748 750 753 755 758 759 761 764 769 773 777 781 782
742 739 737 735 734 735 736 738 740 742 745 747 749 752 754 755 758 762 766 769 773 778
743 739 737 733 732 731 731 733 734 736 738 739 743 746 747 748 750 752 757 760 765 768
745 741 736 733 731 729 727 727 728 730 732 733 734 737 739 741 742 741 746 750 755 759
745 742 737 733 730 727 724 722 722 723 724 724 726 727 729 731 733 734 735 740 745 747
747 742 737 733 729 724 721 718 716 716 716 717 717 718 720 721 722 724 726 729 734 740
748 742 737 731 726 721 718 715 712 711 710 710 710 709 710 712 713 716 718 721 725 731
746 740 735 730 725 721 717 713 708 705 704 702 701 701 703 704 706 709 712 714 718 725
744 739 734 731 726 721 716 711 706 700 698 695 694 693 695 698 701 703 706 709 712 718
742 737 733 729 726 721 716 711 705 698 695 692 690 689 690 693 696 699 703 706 708 711
739 735 731 726 723 719 715 709 703 697 693 689 688 687 687 690 691 695 699 703 706 712
736 733 727 723 719 716 713 707 701 695 691 687 685 685 685 687 687 691 696 700 705 710
731 728 723 719 715 713 710 704 699 694 689 686 683 682 682 684 684 689 695 698 704 708